[[{"header":{"parameterUnit":"m.s-1","parameterCategory":1,"la1":30.2991,"la2":30.254,"lo1":-89.0895,"lo2":-89.0444,"dy":0.0017,"dx":0.0017,"nx":28,"ny":28,"refTime":"2025-03-01T03:00:00:Z","depth":0,"parameterNumber":2,"parameterNumberName":"U-component_of_WINDS"},"data":[0,0,0,0,0,0,0,0,0,0,0,0,0,0,0,0,0,0,0,0,0,0,0,0,0,0,0,0,0,0,0,0,0,0,0,0,0,0,0,0,0,0,0,0,0,0,0,0,0,0,0,0,0,0,0,0,0,0,-0.7112,-0.7112,0,-0.715,-0.7151,-0.7151,-0.7141,-0.714,-0.7139,-0.7138,-0.7182,-0.7184,-0.7186,0,0,0,0,0,0,0,0,0,0,0,0,0,-0.7034,-0.7036,-0.7112,-0.7112,-0.7113,-0.715,-0.7151,-0.7151,-0.7141,-0.714,-0.7139,-0.7138,-0.7181,-0.7183,-0.7186,0,0,0,0,0,0,0,0,0,0,0,0,0,-0.707,-0.7036,-0.7112,-0.7112,-0.7113,-0.715,-0.7151,-0.7151,-0.7141,-0.714,-0.7139,-0.7138,-0.718,-0.7183,-0.7186,-0.7227,0,0,-0.7195,-0.7196,0,0,0,0,0,0,0,0,-0.7068,-0.7073,-0.7112,-0.7112,-0.7113,-0.7139,-0.7139,-0.7177,-0.7141,-0.713,-0.7138,-0.7137,-0.7169,-0.7173,-0.7183,-0.7229,-0.7231,-0.7195,-0.7197,-0.7198,-0.7199,0,0,0,0,0,0,0,-0.7065,-0.7071,-0.7127,-0.7112,-0.7113,-0.7112,-0.7115,-0.7146,-0.7156,-0.7131,-0.7131,-0.7135,-0.7169,-0.718,-0.7183,-0.7231,-0.7195,-0.7197,-0.7199,-0.72,-0.7314,-0.7315,0,0,0,0,0,0,-0.7062,-0.7069,-0.7126,-0.7128,-0.7087,-0.7114,-0.7118,-0.7132,-0.7155,-0.7158,-0.7136,-0.7134,-0.7176,-0.718,-0.7185,-0.7235,-0.7198,-0.72,-0.7202,-0.7312,-0.7314,-0.7315,0,0,0,0,0,0,-0.706,-0.7067,-0.7124,-0.7098,-0.7106,-0.7117,-0.7132,-0.7133,-0.7144,-0.7159,-0.7161,-0.7145,-0.7175,-0.7181,-0.7216,-0.7236,-0.7202,-0.7204,-0.7311,-0.7313,-0.7315,-0.7335,0,0,0,0,0,0,-0.7058,-0.7066,-0.7081,-0.7099,-0.7107,-0.7154,-0.7133,-0.7135,-0.7149,-0.7147,-0.7168,-0.717,-0.7174,-0.7212,-0.7219,-0.724,-0.7206,-0.7309,-0.7312,-0.7314,-0.7332,-0.7337,-0.7341,0,0,0,0,0,-0.7055,-0.7086,-0.7082,-0.7089,-0.7125,-0.7155,-0.716,-0.7163,-0.715,-0.7166,-0.7175,-0.717,-0.7232,-0.7216,-0.7224,-0.7245,-0.7308,-0.7311,-0.7314,-0.7331,-0.7336,-0.7341,0,0,0,0,0,0,-0.7073,-0.7089,-0.7084,-0.7121,-0.7137,-0.7153,-0.7173,-0.7169,-0.7189,-0.7187,-0.7191,-0.7196,-0.7232,-0.7242,-0.7223,-0.7286,-0.7269,-0.7273,-0.7279,-0.7284,-0.7289,-0.7286,-0.7209,0,0,0,0,0,-0.708,-0.7102,-0.7115,-0.7147,-0.7155,-0.7162,-0.7176,-0.7176,-0.7193,-0.72,-0.7212,-0.723,-0.7253,-0.7269,-0.7292,-0.7333,-0.7338,-0.7352,-0.7356,-0.736,-0.7365,-0.7388,-0.7395,-0.7325,-0.7325,-0.7325,0,0,-0.7098,-0.7109,-0.7123,-0.7151,-0.7163,-0.7186,-0.7168,-0.7194,-0.7212,-0.7204,-0.7238,-0.7248,-0.7268,-0.7306,-0.7324,-0.7316,-0.7384,-0.7364,-0.7366,-0.7369,-0.7392,-0.7398,-0.7404,-0.7327,-0.7327,-0.7327,0,0,-0.7141,-0.7151,-0.7179,-0.7191,-0.7208,-0.7213,-0.722,-0.7237,-0.7242,-0.7276,-0.7271,-0.7293,-0.7333,-0.7348,-0.7361,-0.7409,-0.7405,-0.7416,-0.744,-0.7463,-0.7468,-0.7473,-0.7492,-0.7498,-0.742,-0.742,-0.742,0,-0.716,-0.7194,-0.7194,-0.722,-0.7233,-0.7225,-0.7254,-0.7266,-0.7291,-0.7301,-0.7291,-0.7341,-0.7354,-0.7397,-0.7408,-0.7418,-0.7427,-0.7414,-0.7467,-0.7472,-0.7477,-0.7494,-0.7501,-0.7421,-0.7421,-0.7421,-0.7421,0,-0.7218,-0.7241,-0.7262,-0.7285,-0.73,-0.7327,-0.7332,-0.7348,-0.7347,-0.7353,-0.7388,-0.7403,-0.7428,-0.7438,-0.7438,-0.7481,-0.7475,-0.7466,-0.7449,-0.7485,-0.7502,-0.7508,-0.7423,-0.7423,-0.7423,-0.7422,0,0,-0.7275,-0.7296,-0.7304,-0.7314,-0.7332,-0.7351,-0.7379,-0.7402,-0.7416,-0.7433,-0.7457,-0.7491,-0.7483,-0.7497,-0.7498,-0.7518,-0.7557,-0.7507,-0.7507,-0.7517,-0.7606,-0.7614,-0.7622,-0.7553,-0.7554,-0.7555,-0.7605,0,-0.7321,-0.7367,-0.7368,-0.7411,-0.7434,-0.7426,-0.745,-0.7465,-0.7471,-0.7492,-0.7499,-0.7524,-0.751,-0.7519,-0.7538,-0.7548,-0.7575,-0.7544,-0.7578,-0.7579,-0.7574,-0.763,-0.7639,-0.7685,-0.7611,-0.7612,-0.7613,0,-0.7381,-0.7399,-0.7444,-0.7459,-0.7469,-0.749,-0.7512,-0.7531,-0.7548,-0.7551,-0.7567,-0.7565,-0.7594,-0.7574,-0.7615,-0.7594,-0.7608,-0.7615,-0.7616,-0.7621,-0.7599,-0.7638,-0.7699,-0.7707,-0.7623,-0.7622,-0.7622,0,-0.742,-0.7455,-0.7487,-0.7495,-0.7514,-0.7529,-0.7538,-0.7553,-0.7567,-0.7586,-0.7596,-0.7619,-0.7632,-0.765,-0.7655,-0.764,-0.7696,-0.7677,-0.7701,-0.7701,-0.7715,-0.7715,-0.7781,-0.7721,-0.7721,-0.7721,-0.7721,0,-0.7472,-0.7501,-0.7504,-0.7524,-0.7556,-0.7556,-0.7588,-0.7595,-0.7609,-0.7631,-0.7626,-0.7647,-0.7651,-0.7674,-0.7677,-0.7712,-0.7717,-0.7722,-0.7723,-0.7723,-0.7723,-0.7734,-0.7731,-0.7723,-0.7722,-0.7722,-0.7721,0,-0.7522,-0.7525,-0.7559,-0.7573,-0.7577,-0.76,-0.7613,-0.7632,-0.7637,-0.7665,-0.7672,-0.7681,-0.7707,-0.7713,-0.7744,-0.7747,-0.7787,-0.7785,-0.7781,-0.7782,-0.7807,-0.7805,-0.7884,-0.7895,-0.7826,-0.7827,-0.7827,0,-0.7556,-0.7577,-0.7593,-0.7606,-0.7615,-0.7637,-0.7651,-0.7652,-0.7667,-0.7688,-0.7705,-0.773,-0.775,-0.7792,-0.7803,-0.7827,-0.7825,-0.7851,-0.7829,-0.7829,-0.7828,-0.7827,-0.783,-0.7856,-0.7857,-0.7858,-0.7858,0,-0.7616,-0.7616,-0.7636,-0.7656,-0.7673,-0.7689,-0.7705,-0.7716,-0.772,-0.7737,-0.7763,-0.7778,-0.7809,-0.7835,-0.7859,-0.7869,-0.7865,-0.7864,-0.7872,-0.7873,-0.7871,-0.7874,-0.7795,-0.7863,-0.7863,-0.7862,-0.7862,-0.7862,-0.766,-0.7679,-0.7693,-0.7715,-0.7726,-0.7741,-0.776,-0.7767,-0.7787,-0.7812,-0.7811,-0.784,-0.7856,-0.7888,-0.7899,-0.7922,-0.7915,-0.7925,-0.7928,-0.7931,-0.7934,-0.7866,-0.7927,-0.7927,-0.7926,-0.7926,-0.7926,0,-0.7722,-0.773,-0.775,-0.7771,-0.7789,-0.7781,-0.7797,-0.7813,-0.7838,-0.7853,-0.7872,-0.7902,-0.7926,-0.7938,-0.7962,-0.7979,-0.7978,-0.7985,-0.7985,-0.7988,-0.7939,-0.793,-0.7986,-0.7986,-0.7986,-0.7986,-0.7986,-0.7986,-0.7756,-0.7788,-0.779,-0.7827,-0.7835,-0.7862,-0.7872,-0.7886,-0.7898,-0.7931,-0.7951,-0.7957,-0.7971,-0.7996,-0.8019,-0.8022,-0.8032,-0.8041,-0.8043,-0.7997,-0.7991,-0.7986,-0.7978,-0.8043,-0.8043,-0.8091,-0.8091,-0.8092]},{"header":{"parameterUnit":"m.s-1","parameterCategory":1,"la1":30.2991,"la2":30.254,"lo1":-89.0895,"lo2":-89.0444,"dy":0.0017,"dx":0.0017,"nx":28,"ny":28,"refTime":"2025-03-01T03:00:00:Z","depth":0,"parameterNumber":3,"parameterNumberName":"V-component_of_WINDS"},"data":[0,0,0,0,0,0,0,0,0,0,0,0,0,0,0,0,0,0,0,0,0,0,0,0,0,0,0,0,0,0,0,0,0,0,0,0,0,0,0,0,0,0,0,0,0,0,0,0,0,0,0,0,0,0,0,0,0,0,-4.6209,-4.6209,0,-4.6247,-4.6247,-4.6248,-4.619,-4.6188,-4.6186,-4.6185,-4.6222,-4.6224,-4.6227,0,0,0,0,0,0,0,0,0,0,0,0,0,-4.6087,-4.6089,-4.6209,-4.621,-4.621,-4.6247,-4.6247,-4.6248,-4.6191,-4.6188,-4.6186,-4.6184,-4.6221,-4.6224,-4.6227,0,0,0,0,0,0,0,0,0,0,0,0,0,-4.6134,-4.609,-4.6209,-4.6186,-4.6184,-4.6247,-4.6247,-4.6248,-4.6191,-4.6188,-4.6185,-4.6183,-4.622,-4.6224,-4.6228,-4.6314,0,0,-4.6241,-4.6243,0,0,0,0,0,0,0,0,-4.6131,-4.6138,-4.6189,-4.6188,-4.6186,-4.6211,-4.6218,-4.627,-4.6192,-4.6189,-4.6185,-4.6181,-4.622,-4.6224,-4.6238,-4.6316,-4.6317,-4.6241,-4.6244,-4.6246,-4.6247,0,0,0,0,0,0,0,-4.6128,-4.6136,-4.6224,-4.619,-4.6188,-4.6174,-4.6177,-4.6227,-4.6221,-4.6189,-4.6185,-4.619,-4.6219,-4.6234,-4.6238,-4.6318,-4.6241,-4.6245,-4.6248,-4.6249,-4.6469,-4.6472,0,0,0,0,0,0,-4.6128,-4.6134,-4.6223,-4.6225,-4.6151,-4.6178,-4.6182,-4.6206,-4.622,-4.6219,-4.6192,-4.6187,-4.6228,-4.6234,-4.624,-4.6342,-4.6246,-4.625,-4.6252,-4.6466,-4.647,-4.6473,0,0,0,0,0,0,-4.6125,-4.6136,-4.6221,-4.6178,-4.6188,-4.6183,-4.6211,-4.6208,-4.6223,-4.6223,-4.6221,-4.6209,-4.6226,-4.6233,-4.6296,-4.6342,-4.6252,-4.6256,-4.6462,-4.6467,-4.6472,-4.6547,0,0,0,0,0,0,-4.6122,-4.6135,-4.6168,-4.618,-4.6191,-4.6278,-4.6214,-4.6211,-4.6231,-4.6224,-4.6238,-4.6238,-4.6224,-4.629,-4.6301,-4.6347,-4.6259,-4.6458,-4.6464,-4.647,-4.6541,-4.6554,-4.6566,0,0,0,0,0,-4.6118,-4.6188,-4.617,-4.6181,-4.6232,-4.6281,-4.6287,-4.6271,-4.6235,-4.6268,-4.6268,-4.6237,-4.6336,-4.6297,-4.6308,-4.6356,-4.6455,-4.6462,-4.6469,-4.6535,-4.6552,-4.6566,0,0,0,0,0,0,-4.6181,-4.6189,-4.6169,-4.6245,-4.6263,-4.6271,-4.6312,-4.6289,-4.6316,-4.6309,-4.6287,-4.6291,-4.6358,-4.6363,-4.632,-4.6441,-4.6389,-4.6399,-4.6435,-4.6451,-4.6463,-4.6461,-4.6262,0,0,0,0,0,-4.6204,-4.6243,-4.6248,-4.6314,-4.6324,-4.6317,-4.6337,-4.6323,-4.6341,-4.6348,-4.6352,-4.6369,-4.6404,-4.6428,-4.646,-4.6541,-4.6544,-4.658,-4.6592,-4.6603,-4.6612,-4.6656,-4.6672,-4.6498,-4.6497,-4.6497,0,0,-4.6251,-4.626,-4.6286,-4.6327,-4.6339,-4.638,-4.6323,-4.6369,-4.64,-4.6354,-4.6414,-4.6418,-4.6436,-4.6509,-4.6541,-4.6515,-4.666,-4.6612,-4.662,-4.6624,-4.6665,-4.6682,-4.6697,-4.6503,-4.6502,-4.6501,0,0,-4.6359,-4.637,-4.6427,-4.644,-4.646,-4.6454,-4.6468,-4.648,-4.6481,-4.6541,-4.6509,-4.6544,-4.6605,-4.6619,-4.6634,-4.6749,-4.6722,-4.676,-4.6826,-4.6869,-4.6883,-4.6895,-4.6937,-4.6952,-4.6769,-4.6769,-4.6769,0,-4.6415,-4.6477,-4.6459,-4.6508,-4.6527,-4.6488,-4.6546,-4.656,-4.6588,-4.6602,-4.6573,-4.6649,-4.6658,-4.6734,-4.6763,-4.6776,-4.6791,-4.6759,-4.6883,-4.6895,-4.6906,-4.6945,-4.6961,-4.6774,-4.6773,-4.6773,-4.6772,0,-4.6546,-4.6589,-4.6633,-4.6663,-4.6686,-4.6739,-4.6729,-4.6755,-4.674,-4.6738,-4.68,-4.681,-4.6843,-4.686,-4.6845,-4.6935,-4.6918,-4.6886,-4.6834,-4.6927,-4.6964,-4.6979,-4.678,-4.6778,-4.6777,-4.6776,0,0,-4.6694,-4.6714,-4.6731,-4.6744,-4.6763,-4.6796,-4.6847,-4.6881,-4.6905,-4.6926,-4.6969,-4.7021,-4.6992,-4.701,-4.6995,-4.7034,-4.7125,-4.6997,-4.6997,-4.7021,-4.7226,-4.725,-4.7268,-4.7107,-4.711,-4.7112,-4.7224,0,-4.6802,-4.6892,-4.6878,-4.6964,-4.7004,-4.6969,-4.7014,-4.703,-4.703,-4.7064,-4.7063,-4.7101,-4.7059,-4.707,-4.7106,-4.7106,-4.7166,-4.7098,-4.7147,-4.7149,-4.7145,-4.7287,-4.7313,-4.7419,-4.7239,-4.7241,-4.7243,0,-4.6941,-4.6968,-4.7059,-4.7073,-4.7089,-4.713,-4.7161,-4.7193,-4.7211,-4.7208,-4.7229,-4.7208,-4.7259,-4.7206,-4.7276,-4.7231,-4.725,-4.7253,-4.7257,-4.7261,-4.7202,-4.7296,-4.7452,-4.7468,-4.7265,-4.7263,-4.7262,0,-4.7041,-4.7101,-4.7163,-4.7176,-4.7193,-4.7223,-4.7231,-4.7246,-4.7268,-4.7295,-4.7309,-4.734,-4.7358,-4.7383,-4.7372,-4.7334,-4.7445,-4.739,-4.7444,-4.7445,-4.7469,-4.7468,-4.7631,-4.7481,-4.748,-4.748,-4.748,0,-4.7164,-4.7221,-4.7209,-4.7247,-4.7311,-4.7293,-4.7356,-4.7361,-4.7375,-4.7413,-4.7384,-4.7421,-4.7403,-4.7438,-4.7429,-4.749,-4.7498,-4.7497,-4.7494,-4.75,-4.7501,-4.7513,-4.7506,-4.7484,-4.7483,-4.7483,-4.7482,0,-4.7287,-4.7281,-4.7347,-4.7358,-4.7363,-4.7409,-4.7418,-4.7455,-4.7452,-4.7502,-4.7512,-4.7508,-4.7549,-4.754,-4.7584,-4.7578,-4.7654,-4.7641,-4.7648,-4.7646,-4.77,-4.7696,-4.7878,-4.7901,-4.7735,-4.7736,-4.7738,0,-4.7366,-4.741,-4.7426,-4.7451,-4.7462,-4.7501,-4.7523,-4.7508,-4.7533,-4.7557,-4.7591,-4.7629,-4.7658,-4.7724,-4.7725,-4.7759,-4.7748,-4.7809,-4.7752,-4.7758,-4.775,-4.7748,-4.7752,-4.782,-4.7822,-4.7824,-4.7825,0,-4.7508,-4.7503,-4.7536,-4.757,-4.7598,-4.7623,-4.7645,-4.7667,-4.7653,-4.7683,-4.7724,-4.7747,-4.7793,-4.7831,-4.7863,-4.7871,-4.7846,-4.7843,-4.7857,-4.7864,-4.7867,-4.7867,-4.768,-4.7839,-4.7838,-4.7837,-4.7836,-4.7835,-4.7612,-4.7649,-4.7667,-4.7706,-4.7722,-4.7744,-4.7779,-4.7781,-4.7816,-4.7852,-4.7841,-4.7889,-4.7906,-4.7946,-4.7958,-4.7995,-4.7972,-4.7992,-4.7998,-4.8003,-4.8011,-4.7861,-4.8,-4.8,-4.8,-4.7999,-4.7999,0,-4.7752,-4.7763,-4.7799,-4.7832,-4.7863,-4.7837,-4.7861,-4.7888,-4.7931,-4.795,-4.798,-4.8028,-4.8066,-4.807,-4.8105,-4.8134,-4.8124,-4.8144,-4.8142,-4.8144,-4.8029,-4.8013,-4.8152,-4.8152,-4.8152,-4.8152,-4.8152,-4.8151,-4.7829,-4.7892,-4.7889,-4.796,-4.7969,-4.8016,-4.8032,-4.8052,-4.8067,-4.8123,-4.8154,-4.8157,-4.817,-4.8206,-4.824,-4.824,-4.8255,-4.8279,-4.8275,-4.8168,-4.8152,-4.8138,-4.8123,-4.8282,-4.8283,-4.8388,-4.8389,-4.839]}]]